Tracking 27122 objects as of 25-Mar-2023
HD Live streaming from Space Station
objects crossing your sky now

SL-12 R/B(2)

Track SL-12 R/B(2) now!


NORAD ID: 19094
Int'l Code: 1988-036E
Perigee: 35,455.1 km
Apogee: 35,664.3 km
Inclination: 12.0 °
Period: 1,424.2 minutes
Semi major axis: 41930 km
RCS: 2.2903 m2 (large)
Launch date: May 6, 1988
Source: Commonwealth of Independent States (former USSR) (CIS)
Launch site: TYURATAM MISSILE AND SPACE COMPLEX (TTMTR)

Note: This is a ROCKET BODY
Your satellite tracking list
Your tracking list is empty




NASA's NSSDC Master Catalog

Two Line Element Set (TLE):
1 19094U 88036E   23083.14153032 -.00000108  00000-0  00000-0 0  9993
2 19094  11.9607 331.1625 0024947 150.0048  81.3993  1.01112469109888
Source of the keplerian elements: AFSPC